[[{"header":{"parameterUnit":"m.s-1","parameterCategory":1,"la1":30.2992,"la2":30.254,"lo1":-89.0895,"lo2":-89.0443,"dy":0.0025,"dx":0.0025,"nx":19,"ny":19,"refTime":"2026-04-20T21:00:00:Z","depth":0,"parameterNumber":2,"parameterNumberName":"U-component_of_WINDS"},"data":[0,0,0,-7.1375,-7.1378,-7.1512,-7.1512,-7.1697,-7.1699,0,0,0,0,0,0,0,0,0,0,0,-7.1345,-7.1346,-7.1375,-7.1378,-7.1512,-7.1512,-7.1697,-7.1699,0,0,0,0,0,0,0,0,0,0,0,-7.1344,-7.1346,-7.1348,-7.1379,-7.1512,-7.1513,-7.1696,-7.159,0,0,0,0,0,0,0,0,0,0,-7.1458,-7.1439,-7.1345,-7.1348,-7.138,-7.1512,-7.1513,-7.1585,-7.1597,-7.1642,0,-7.1687,0,-7.1696,-7.1712,-7.1713,0,0,0,-7.1371,-7.1429,-7.1457,-7.1348,-7.1381,-7.1512,-7.1449,-7.1591,-7.1605,-7.1658,-7.1689,-7.1696,-7.1699,-7.1713,-7.1714,-7.2007,-7.2009,0,0,-7.1363,-7.1373,-7.1448,-7.1467,-7.1449,-7.1445,-7.1454,-7.1599,-7.1633,-7.169,-7.17,-7.1702,-7.1715,-7.1716,-7.2006,-7.2008,0,0,0,-7.1347,-7.1368,-7.1392,-7.1459,-7.1483,-7.1449,-7.1459,-7.1626,-7.1633,-7.1702,-7.1704,-7.1716,-7.1718,-7.2004,-7.2007,-7.21,0,0,0,-7.1342,-7.1359,-7.139,-7.1397,-7.148,-7.1557,-7.1483,-7.1623,-7.164,-7.1703,-7.1716,-7.172,-7.2002,-7.2005,-7.2094,-7.2141,0,0,0,-7.1333,-7.1358,-7.1381,-7.1397,-7.1456,-7.1554,-7.1569,-7.1627,-7.1642,-7.1713,-7.1721,-7.2001,-7.2005,-7.2088,-7.2132,-7.222,0,0,0,-7.1324,-7.1462,-7.1382,-7.1537,-7.1455,-7.1613,-7.1568,-7.1685,-7.1758,-7.1717,-7.2002,-7.2006,-7.2086,-7.2126,-7.2214,-7.2294,-7.2329,0,0,-7.1503,-7.1483,-7.1573,-7.1507,-7.1681,-7.1591,-7.178,-7.1836,-7.1833,-7.1949,-7.1956,-7.2096,-7.2131,-7.2219,-7.253,-7.2558,0,0,0,-7.1633,-7.1697,-7.1742,-7.1812,-7.1861,-7.1905,-7.1932,-7.1953,-7.2052,-7.1895,-7.2153,-7.2174,-7.2225,-7.2262,-7.2286,-7.2328,-7.2025,-7.2025,-7.2024,-7.1896,-7.1887,-7.2035,-7.2043,-7.2113,-7.2141,-7.2195,-7.2228,-7.2198,-7.2259,-7.2292,-7.2482,-7.2527,-7.2544,-7.2588,-7.2337,-7.2337,-7.2338,-7.2338,-7.2153,-7.2242,-7.2202,-7.233,-7.232,-7.2428,-7.2461,-7.2437,-7.2534,-7.2456,-7.25,-7.2412,-7.2576,-7.2613,-7.2345,-7.2344,-7.2343,-7.2342,-7.2342,-7.2321,-7.2362,-7.2388,-7.249,-7.257,-7.2574,-7.267,-7.2658,-7.2647,-7.2691,-7.2723,-7.2722,-7.2716,-7.2709,-7.2709,-7.271,-7.271,-7.2711,-7.2711,-7.2483,-7.2509,-7.2593,-7.2658,-7.2702,-7.2759,-7.2791,-7.2834,-7.2878,-7.2861,-7.2861,-7.2823,-7.2595,-7.2535,-7.2721,-7.272,-7.2718,-7.2717,-7.2717,-7.274,-7.2681,-7.2809,-7.2854,-7.293,-7.3009,-7.2995,-7.3084,-7.3118,-7.3165,-7.3121,-7.2955,-7.2933,-7.2914,-7.2864,-7.3124,-7.3124,-7.3124,-7.3124,-7.2879,-7.2869,-7.2997,-7.307,-7.314,-7.314,-7.3285,-7.3312,-7.333,-7.3351,-7.3313,-7.3248,-7.3229,-7.3218,-7.3192,-7.3146,-7.3471,-7.3471,-7.3472,-7.3035,-7.3031,-7.3156,-7.3176,-7.3235,-7.3285,-7.342,-7.3504,-7.3513,-7.3486,-7.3366,-7.3351,-7.3246,-7.3213,-7.3177,-7.3137,-7.3052,0,0]},{"header":{"parameterUnit":"m.s-1","parameterCategory":1,"la1":30.2992,"la2":30.254,"lo1":-89.0895,"lo2":-89.0443,"dy":0.0025,"dx":0.0025,"nx":19,"ny":19,"refTime":"2026-04-20T21:00:00:Z","depth":0,"parameterNumber":3,"parameterNumberName":"V-component_of_WINDS"},"data":[0,0,0,3.5567,3.5567,3.5563,3.5563,3.5568,3.5568,0,0,0,0,0,0,0,0,0,0,0,3.5574,3.5574,3.5567,3.5567,3.5563,3.5563,3.5568,3.5568,0,0,0,0,0,0,0,0,0,0,0,3.5574,3.5574,3.5575,3.5567,3.5563,3.5563,3.5568,3.5567,0,0,0,0,0,0,0,0,0,0,3.5569,3.5582,3.5574,3.5575,3.5567,3.5563,3.5563,3.5567,3.5567,3.5575,0,3.5583,0,3.5576,3.557,3.557,0,0,0,3.5562,3.5582,3.5576,3.5575,3.5567,3.5563,3.5563,3.5567,3.5567,3.5575,3.5583,3.5583,3.5576,3.557,3.557,3.5631,3.5631,0,0,3.5562,3.5577,3.5576,3.5576,3.5578,3.5563,3.5563,3.5567,3.5576,3.5583,3.5583,3.5576,3.557,3.557,3.563,3.5631,0,0,0,3.5566,3.5577,3.557,3.5576,3.5575,3.5563,3.5563,3.5576,3.5573,3.5583,3.5576,3.557,3.557,3.5629,3.563,3.5671,0,0,0,3.5566,3.5579,3.557,3.5579,3.5575,3.5576,3.5572,3.5573,3.5573,3.5576,3.557,3.557,3.5629,3.563,3.5669,3.5687,0,0,0,3.5572,3.558,3.5582,3.558,3.5579,3.5575,3.5572,3.5572,3.5569,3.557,3.557,3.5628,3.563,3.5666,3.5683,3.5708,0,0,0,3.5583,3.5617,3.5583,3.5618,3.558,3.5601,3.5572,3.5587,3.5592,3.557,3.5629,3.563,3.5666,3.5681,3.5706,3.573,3.5742,0,0,3.5634,3.5624,3.5643,3.5613,3.5644,3.56,3.5638,3.5628,3.5614,3.5626,3.5627,3.5669,3.5683,3.5707,3.5805,3.5815,0,0,0,3.5665,3.5679,3.5684,3.5691,3.5686,3.5683,3.5666,3.5663,3.5673,3.5623,3.5685,3.5692,3.5706,3.5717,3.5725,3.5736,3.5636,3.5636,3.5636,3.5756,3.5739,3.577,3.5753,3.576,3.5744,3.5748,3.5741,3.5719,3.5734,3.5737,3.5799,3.5812,3.5818,3.583,3.5749,3.5749,3.5749,3.575,3.5829,3.5846,3.582,3.5841,3.5822,3.5839,3.5826,3.5811,3.5824,3.5794,3.5805,3.5774,3.583,3.5838,3.5752,3.5752,3.5752,3.5751,3.5751,3.5886,3.5892,3.5889,3.5898,3.5908,3.5889,3.5904,3.5886,3.5868,3.588,3.5881,3.588,3.5877,3.5882,3.5882,3.5882,3.5882,3.5883,3.5883,3.5946,3.5942,3.5957,3.5957,3.596,3.5961,3.5948,3.595,3.5948,3.5934,3.5934,3.5911,3.5839,3.5821,3.5886,3.5885,3.5885,3.5885,3.5884,3.6025,3.6005,3.6028,3.6032,3.6031,3.6042,3.602,3.6027,3.6026,3.6035,3.6011,3.596,3.5948,3.5941,3.5926,3.6014,3.6014,3.6014,3.6014,3.6073,3.6066,3.6086,3.6093,3.6098,3.6082,3.6109,3.61,3.6087,3.6086,3.6071,3.6049,3.6044,3.6034,3.6026,3.6011,3.6119,3.6119,3.6119,3.612,3.6113,3.6139,3.6128,3.6126,3.6126,3.6151,3.616,3.6141,3.6123,3.6084,3.608,3.6045,3.6035,3.6014,3.6001,3.5974,0,0]}]]